Volver al catálogo

STARLINK-11310

ActivoComunicacionesVLEO
NORAD 61212·PAYLOAD·🇺🇸 United States

Lanzado Sep 20, 2024 desde Vandenberg Space Force Base

Loading…

Próximos Pases (próximas 24 horas)

TLE

ActualizadoSource: CelesTrak SupGP

Época: Sep 14, 2026, 21:37 UTC

1 61212C 24171N   26257.90118056 -.00048339  00000+0 -39804-3 0  2571
2 61212  53.1566 323.7577 0001106  92.8439 251.8486 15.69742272    17

Sigue STARLINK-11310 en tiempo real con AllMySat

Download on the App Store